TimeEDT,TemperatureF,Dew PointF,Humidity,Sea Level PressureIn,VisibilityMPH,Wind Direction,Wind SpeedMPH,Gust SpeedMPH,PrecipitationIn,Events,Conditions,WindDirDegrees,DateUTC
12:53 AM,55.9,53.1,90,30.18,10.0,Calm,Calm,-,N/A,,Clear,0,2013-10-28 04:53:00
1:53 AM,55.9,53.1,90,30.16,10.0,Calm,Calm,-,N/A,,Clear,0,2013-10-28 05:53:00
2:53 AM,57.0,54.0,89,30.16,10.0,Calm,Calm,-,N/A,,Clear,0,2013-10-28 06:53:00
3:53 AM,57.0,54.0,89,30.16,9.0,Calm,Calm,-,N/A,,Clear,0,2013-10-28 07:53:00
4:53 AM,55.9,53.1,90,30.17,9.0,Calm,Calm,-,N/A,,Clear,0,2013-10-28 08:53:00
5:53 AM,53.1,52.0,96,30.18,8.0,Calm,Calm,-,N/A,,Partly Cloudy,0,2013-10-28 09:53:00
6:53 AM,52.0,50.0,93,30.20,7.0,Calm,Calm,-,N/A,,Scattered Clouds,0,2013-10-28 10:53:00
7:53 AM,52.0,50.0,93,30.22,7.0,Calm,Calm,-,N/A,,Clear,0,2013-10-28 11:53:00
8:53 AM,54.0,53.1,97,30.23,6.0,Calm,Calm,-,N/A,,Partly Cloudy,0,2013-10-28 12:53:00
9:53 AM,62.1,55.0,78,30.27,7.0,Calm,Calm,-,N/A,,Clear,0,2013-10-28 13:53:00
10:53 AM,69.1,53.1,57,30.27,10.0,Variable,3.5,-,N/A,,Scattered Clouds,0,2013-10-28 14:53:00
11:53 AM,72.0,54.0,53,30.27,10.0,NNW,4.6,-,N/A,,Clear,340,2013-10-28 15:53:00
12:53 PM,75.9,52.0,43,30.26,10.0,Variable,4.6,-,N/A,,Clear,0,2013-10-28 16:53:00
1:53 PM,75.9,52.0,43,30.23,10.0,East,5.8,-,N/A,,Clear,100,2013-10-28 17:53:00
2:53 PM,77.0,52.0,42,30.21,10.0,Calm,Calm,-,N/A,,Clear,0,2013-10-28 18:53:00
3:53 PM,79.0,51.1,38,30.19,10.0,Calm,Calm,-,N/A,,Partly Cloudy,0,2013-10-28 19:53:00
4:53 PM,78.1,52.0,40,30.19,10.0,ESE,3.5,-,N/A,,Clear,120,2013-10-28 20:53:00
5:53 PM,77.0,51.1,40,30.19,10.0,ENE,3.5,-,N/A,,Clear,70,2013-10-28 21:53:00
6:53 PM,70.0,55.9,61,30.20,10.0,Calm,Calm,-,N/A,,Clear,0,2013-10-28 22:53:00
7:53 PM,64.9,55.0,70,30.22,10.0,Calm,Calm,-,N/A,,Clear,0,2013-10-28 23:53:00
8:53 PM,63.0,55.0,75,30.24,10.0,Calm,Calm,-,N/A,,Clear,0,2013-10-29 00:53:00
9:53 PM,61.0,55.0,81,30.25,10.0,Calm,Calm,-,N/A,,Clear,0,2013-10-29 01:53:00
10:53 PM,59.0,55.0,87,30.27,10.0,Calm,Calm,-,N/A,,Clear,0,2013-10-29 02:53:00
11:53 PM,57.9,54.0,87,30.27,9.0,Calm,Calm,-,N/A,,Clear,0,2013-10-29 03:53:00